Tracking 33485 objects as of 15-Mar-2026
HD Live streaming from Space Station
objects crossing your sky now

STARLINK-36718

Track STARLINK-36718 now!
10-day predictions
STARLINK-36718 is classified as:


NORAD ID: 67715
Int'l Code: 2026-025Y
Perigee: 350.3 km
Apogee: 352.1 km
Inclination: 97.3 °
Period: 91.4 minutes
Semi major axis: 6722 km
RCS: Unknown
Launch date: February 7, 2026
Source: United States (US)
Launch site: AIR FORCE WESTERN TEST RANGE (AFWTR)
Your satellite tracking list
Your tracking list is empty




NASA's NSSDC Master Catalog

Two Line Element Set (TLE):
1 67715U 26025Y   26074.29155090  .00197157  00000-0  12925-2 0  9992
2 67715  97.2847 186.3278 0001322  73.9690 286.1721 15.75189257  6836
Source of the keplerian elements: AFSPC